Weather History for Rome, GA

Change the Weather History Date:

Monday, December 9, 2013

  Actual Average Record
Temperature  
Mean Temperature 47 °F 44 °F  
Max Temperature 50 °F 54 °F 75 °F (2007)
Min Temperature 43 °F 33 °F 14 °F (2006)
Degree Days  
Heating Degree Days 18 21  
Month to date heating degree days 123 183  
Since 1 July heating degree days 758 790  
Moisture  
Dew Point 45 °F    
Average Humidity 93    
Maximum Humidity 100    
Minimum Humidity 86    
Precipitation  
Precipitation 0.63 in 0.17 in 1.29 in (2004)
Month to date precipitation 3.77 1.65  
Snow  
Snow 0.00 in - - ()
Month to date snowfall 0.0  
Since 1 July snowfall 0.0  
Snow Depth 0.00 in    
Sea Level Pressure  
Sea Level Pressure 30.11 in    
Wind  
Wind Speed 2 mph (SSE)    
Max Wind Speed 26 mph    
Max Gust Speed 32 mph    
Visibility 7 miles    
Events Rain    
T = Trace of Precipitation, MM = Missing Value Source: NWS Daily Summary

Daily Weather History Graph

Daily Weather History Graph

Search for Another Location

Airport:

Trip Planner

Search our weather history database for the weather conditions in past years. The results will help you decide how hot, cold, wet, or windy it might be!

Date:

Astronomy

Dec. 09, 2013 Rise Set
Actual Time 7:35 AM EST 5:30 PM EST
Civil Twilight 7:07 AM EST 5:58 PM EST
Nautical Twilight 6:36 AM EST 6:29 PM EST
Astronomical Twilight 6:05 AM EST 7:00 PM EST
Moon 12:43 PM EST (12/9) 12:05 AM EST (12/9)
Length of Visible Light 10h 50m
Length of Day
9h 55m
Waxing Crescent, 51% of the Moon is Illuminated
Dec 9
Waxing Crescent
Dec 17
Full
Dec 25
Last Quarter
Jan 1
New
Jan 7
First Quarter

Hourly Weather History & Observations

Time (EST) Temp. Windchill Dew Point Humidity Pressure Visibility Wind Dir Wind Speed Gust Speed Precip Events Conditions
12:53 AM 44.1 °F 40.8 °F 43.0 °F 96% 30.13 in 6.0 mi South 5.8 mph - 0.10 in Rain Light Rain
1:51 AM 44.6 °F - 42.8 °F 93% 30.12 in 10.0 mi North - - 0.02 in Rain Light Rain
1:53 AM 44.1 °F - 43.0 °F 96% 30.11 in 10.0 mi North - - 0.02 in Rain Light Rain
2:05 AM 44.6 °F - 42.8 °F 93% 30.10 in 5.0 mi North - - 0.04 in Rain Rain
2:53 AM 44.1 °F - 43.0 °F 96% 30.11 in 4.0 mi North - - 0.07 in Rain Heavy Rain
3:18 AM 42.8 °F - 42.8 °F 100% 30.10 in 8.0 mi North - - 0.02 in Rain Light Rain
3:33 AM 42.8 °F - 42.8 °F 100% 30.10 in 3.0 mi North - - 0.06 in Rain Rain
3:42 AM 42.8 °F - 42.8 °F 100% 30.10 in 2.0 mi North - - 0.12 in Rain Heavy Rain
3:53 AM 43.0 °F - 43.0 °F 100% 30.10 in 2.5 mi North - - 0.18 in Rain Rain
4:03 AM 42.8 °F - 42.8 °F 100% 30.09 in 4.0 mi North - - 0.03 in Rain Light Rain
4:53 AM 44.1 °F - 43.0 °F 96% 30.08 in 6.0 mi North - - 0.09 in Rain Light Rain
5:53 AM 44.1 °F - 43.0 °F 96% 30.11 in 4.0 mi North - - 0.09 in Rain Light Rain
6:14 AM 44.6 °F - 42.8 °F 93% 30.12 in 6.0 mi Calm Calm - 0.04 in Rain Light Rain
6:44 AM 42.8 °F 40.1 °F 42.8 °F 100% 30.12 in 7.0 mi SW 4.6 mph 16.1 mph 0.05 in Rain Light Rain
6:53 AM 44.1 °F - 43.0 °F 96% 30.12 in 10.0 mi North - - 0.05 in   Overcast
7:53 AM 44.1 °F - 43.0 °F 96% 30.13 in 4.0 mi North - - 0.01 in   Overcast
8:12 AM 44.6 °F - 44.6 °F 100% 30.14 in 4.0 mi North - - N/A   Overcast
8:27 AM 44.6 °F - 44.6 °F 100% 30.15 in 2.5 mi North - - 0.01 in   Overcast
8:42 AM 44.6 °F 43.1 °F 44.6 °F 100% 30.14 in 1.2 mi East 3.5 mph - 0.01 in Rain Light Rain
8:53 AM 44.1 °F - 44.1 °F 100% 30.14 in 2.0 mi Calm Calm - 0.02 in   Overcast
8:59 AM 44.6 °F - 44.6 °F 100% 30.15 in 3.0 mi Calm Calm - N/A   Overcast
9:10 AM 44.6 °F - 44.6 °F 100% 30.14 in 5.0 mi Calm Calm - N/A   Overcast
9:30 AM 44.6 °F - 44.6 °F 100% 30.15 in 10.0 mi Calm Calm - N/A   Overcast
9:53 AM 45.0 °F - 44.1 °F 97% 30.16 in 10.0 mi Calm Calm - N/A   Overcast
10:53 AM 46.0 °F - 45.0 °F 96% 30.17 in 10.0 mi Calm Calm - N/A   Overcast
11:53 AM 46.9 °F - 45.0 °F 93% 30.15 in 10.0 mi Calm Calm - N/A   Overcast
12:53 PM 46.9 °F - 45.0 °F 93% 30.13 in 10.0 mi Calm Calm - N/A   Overcast
1:53 PM 48.0 °F - 46.0 °F 93% 30.12 in 10.0 mi Calm Calm - N/A   Overcast
2:53 PM 48.0 °F - 46.0 °F 93% 30.11 in 10.0 mi Calm Calm - N/A   Overcast
3:49 PM 50.0 °F - 46.4 °F 87% 30.10 in 10.0 mi Calm Calm - N/A   Overcast
3:53 PM 50.0 °F - 46.9 °F 89% 30.10 in 10.0 mi Calm Calm - N/A   Overcast
4:26 PM 50.0 °F - 46.4 °F 87% 30.11 in 10.0 mi Calm Calm - N/A   Mostly Cloudy
4:53 PM 50.0 °F - 48.0 °F 93% 30.11 in 10.0 mi Calm Calm - N/A   Overcast
5:13 PM 50.0 °F - 48.2 °F 94% 30.12 in 10.0 mi Calm Calm - N/A   Overcast
5:53 PM 50.0 °F - 48.0 °F 93% 30.12 in 10.0 mi Calm Calm - N/A   Overcast
6:53 PM 48.9 °F - 48.0 °F 97% 30.12 in 10.0 mi Calm Calm - N/A   Overcast
7:30 PM 48.2 °F - 48.2 °F 100% 30.11 in 10.0 mi Calm Calm - N/A   Overcast
7:46 PM 48.2 °F - 48.2 °F 100% 30.11 in 10.0 mi Calm Calm - N/A   Overcast
7:53 PM 48.9 °F - 48.0 °F 97% 30.11 in 10.0 mi Calm Calm - N/A   Overcast
8:05 PM 48.2 °F - 48.2 °F 100% 30.10 in 10.0 mi Calm Calm - N/A   Overcast
8:53 PM 48.9 °F - 48.0 °F 97% 30.09 in 9.0 mi Calm Calm - N/A   Overcast
9:25 PM 48.2 °F - 48.2 °F 100% 30.08 in 10.0 mi Calm Calm - N/A   Overcast
9:53 PM 48.9 °F - 48.0 °F 97% 30.06 in 10.0 mi Calm Calm - N/A   Overcast
10:00 PM 48.2 °F - 48.2 °F 100% 30.06 in 9.0 mi Calm Calm - N/A   Overcast
10:13 PM 48.2 °F - 48.2 °F 100% 30.05 in 7.0 mi Calm Calm - N/A   Overcast
10:53 PM 48.9 °F - 48.0 °F 97% 30.03 in 7.0 mi South 3.5 mph - N/A   Overcast
11:49 PM 48.2 °F - 48.2 °F 100% 30.02 in 2.5 mi North 5.8 mph - 0.02 in Rain Rain
11:53 PM 48.9 °F - 48.0 °F 97% 30.01 in 2.0 mi NNE 4.6 mph - 0.02 in Rain Light Rain